CZ-6A DEB, 61812

Orbit data source: Space-Track

CZ-6A DEB, 61812 is space debris in LEO originally from a launch on Tue, 06 Aug 2024 UTC launched from the Taiyaun Space Center, China (TSC). Debris objects in space refer to the collection of defunct objects orbiting the Earth. Examples of debris include non-operational satellites, rocket bodies, and fragments generated from explosions, collisions, or faulty payload assembly.

Loading next visibility...
Identifier
61812, 2024-140ACC
Orbit
LEO
Country
Flag of CNCN / PRC
Related business
Manufacturer
SAST
Mission
Spacecraft
Bus & Motor
Unknown
Mass
Unknown
Launch date (UTC)
2024-08-06 (1 year ago)
Launch vehicle
Unknown
Launch site
Taiyaun Space Center, China (TSC)
Object type
Payload
Rocket body
Debris
Shape & HBR
Unknown shape, 0.1 m
Radar Cross Section
Small (<0.1 m²)

Expand to show TLE details & history
Last TLE update: 1 day ago

TLE from 1 day ago
0 CZ-6A DEB
1 61812U 24140ACC 25350.36767206  .00002661  00000-0  10085-2 0  9992
2 61812  89.3908 317.4875 0090137 111.4148 249.6693 14.28673755 66843
Epoch: 2025-12-16T08:49Z
TLE epoch observation values (Epoch: 2025-12-16T08:49:26.865Z)
Latitude
-0.00001°
Longitude
99.87267°
Altitude
822.218 km
Speed
7.43 km/s
True Right ascension
21h 09m 56s
True Declination
0° 00' 00"
Sunlit
Object was in daylight at epoch
Visualization orbit readout
Latitude
Unknown
Longitude
Unknown
Altitude
Unknown
Speed
Unknown
Apparent Right ascension
Unknown
Apparent Declination
Unknown
Sunlit
N/A
Visualization observer readout
Local Sidereal Time
14:44:15
Azimuth
Unknown
Elevation
Unknown
Doppler factor
Unknown
Orbital elements
Apogee altitude
857.743 km
Perigee altitude
728.465 km
Semi-major axis
7,171.241 km
Eccentricity
0.00901
Inclination
89.3908°
RAAN
317.4875°
Arg. of periapsis
111.4148°
True anomaly
248.70458°
Mean anomaly
249.6693°
Eccentric anomaly
249.18656°
Mean motion
3.57398 °/min
Orbital period
100.73 mins
BSTAR
0.0010085
Loading maneuver chart data...
Computing Atmospheric mass density...
Loading historical data...
Loading historical data...
Loading historical data...
Loading historical data...
Loading historical data...
Loading historical data...
Loading historical data...

Documentation

Showing up to 5 results
|